EW8702 Weather Reports


Display with metric or nautical units.
time (UTC)temp
F
wind
direction
speed
MPH
gust
MPH
rain 1hr
in
rain 24hr
in
rain mn
in
humidity
%
barometer
mb
20260506083122 43 166 2.0 7.0 0.00 0.17 0.00 63 1014.9
20260506082122 43 172 5.0 12.0 0.00 0.17 0.00 62 1014.8
20260506081122 44 59 3.0 7.0 0.00 0.17 0.00 62 1014.4
20260506080122 45 74 3.0 8.0 0.00 0.17 0.00 62 1014.1
20260506073122 47 8 4.0 12.0 0.00 0.17 0.00 69 1013.1
20260506072122 48 208 2.0 6.0 0.00 0.17 0.00 74 1012.6
20260506071122 48 197 1.0 5.0 0.00 0.17 0.00 77 1012.1
20260506070122 48 0 0.0 0.0 0.00 0.17 0.00 77 1011.7
20260506062122 49 221 0.0 1.0 0.00 0.17 0.00 76 1010.9
20260506061122 49 166 0.0 2.0 0.00 0.17 0.00 75 1010.6
20260506060122 50 119 0.0 2.0 0.00 0.17 0.00 74 1010.5
20260506051122 50 94 1.0 3.0 0.00 0.17 0.17 72 1010.1
20260506050122 50 341 0.0 1.0 0.00 0.17 0.17 70 1009.9
20260506045122 50 314 0.0 1.0 0.00 0.17 0.17 69 1009.7
20260506044122 50 0 0.0 0.0 0.00 0.17 0.17 68 1009.9
20260506043122 51 315 0.0 1.0 0.00 0.17 0.17 68 1009.9
20260506042122 51 0 0.0 3.0 0.00 0.17 0.17 67 1009.8
20260506041123 51 34 0.0 4.0 0.00 0.17 0.17 69 1009.7
20260506040122 50 18 3.0 5.0 0.00 0.17 0.17 73 1009.7
20260506035122 49 338 3.0 8.0 0.00 0.17 0.17 72 1009.7
20260506034122 50 302 1.0 3.0 0.00 0.17 0.17 71 1009.6
20260506033143 50 278 0.0 4.0 0.00 0.17 0.17 70 1009.2
20260506032122 51 0 0.0 0.0 0.00 0.17 0.17 69 1009.1
20260506031122 51 277 0.0 2.0 0.00 0.17 0.17 68 1009.1
20260506030122 51 352 1.0 5.0 0.00 0.17 0.17 69 1008.9
20260506025143 51 338 1.0 5.0 0.00 0.17 0.17 70 1008.8
20260506024122 52 339 3.0 8.0 0.00 0.17 0.17 71 1008.9
20260506023122 52 282 0.0 3.0 0.00 0.17 0.17 70 1008.7
20260506022122 53 0 0.0 2.0 0.00 0.17 0.17 70 1008.5
20260506021122 53 0 0.0 0.0 0.00 0.17 0.17 69 1008.3
20260506020122 54 0 0.0 0.0 0.00 0.17 0.17 68 1008.3
20260506015123 54 0 0.0 0.0 0.00 0.17 0.17 68 1008.2
20260506014122 55 273 0.0 1.0 0.00 0.17 0.17 68 1008.3
20260506013122 56 269 0.0 2.0 0.00 0.17 0.17 66 1008.2
20260506012122 57 257 1.0 4.0 0.00 0.17 0.17 65 1008.1
20260506011143 56 119 0.0 1.0 0.00 0.17 0.17 62 1008.0
20260506010122 56 119 0.0 3.0 0.00 0.17 0.17 62 1008.1
20260506005122 56 121 0.0 1.0 0.00 0.17 0.17 62 1008.2
20260506004122 56 121 1.0 4.0 0.00 0.17 0.17 61 1008.0
20260506003123 56 81 0.0 3.0 0.00 0.17 0.17 61 1008.0
20260506002122 56 147 0.0 2.0 0.00 0.17 0.17 60 1008.2
20260506001122 56 118 1.0 5.0 0.00 0.17 0.17 60 1008.1
20260506000122 56 106 2.0 7.0 0.00 0.17 0.17 61 1008.2
20260505235122 56 147 2.0 6.0 0.00 0.17 0.17 62 1008.2
20260505234143 56 181 0.0 3.0 0.00 0.17 0.17 61 1008.3
20260505233122 56 163 1.0 5.0 0.00 0.17 0.17 61 1008.4
20260505232122 56 183 0.0 5.0 0.00 0.17 0.17 62 1008.5
20260505231122 56 155 2.0 6.0 0.00 0.17 0.17 62 1008.6
20260505230122 56 159 2.0 6.0 0.00 0.17 0.17 61 1008.7
20260505225122 56 178 2.0 6.0 0.00 0.17 0.17 62 1008.8
20260505224123 56 77 1.0 4.0 0.00 0.17 0.17 60 1008.9
20260505223122 57 117 1.0 6.0 0.00 0.17 0.17 59 1009.0
20260505222143 57 188 2.0 7.0 0.00 0.17 0.17 62 1009.1
20260505221123 56 149 2.0 6.0 0.00 0.17 0.17 63 1009.3
20260505220143 56 157 3.0 7.0 0.00 0.17 0.17 63 1009.5
20260505215122 56 184 1.0 3.0 0.00 0.17 0.17 65 1009.7
20260505214143 55 184 3.0 8.0 0.00 0.17 0.17 67 1009.9
20260505213122 54 169 2.0 8.0 0.00 0.17 0.17 70 1010.0
20260505212122 53 165 2.0 7.0 0.00 0.17 0.17 72 1010.2
20260505211122 52 138 1.0 4.0 0.00 0.17 0.17 76 1010.2
20260505210123 51 103 2.0 6.0 0.00 0.17 0.17 77 1010.4
20260505205122 51 123 2.0 8.0 0.00 0.17 0.17 80 1010.4
20260505204122 51 116 2.0 8.0 0.01 0.17 0.17 81 1010.4
20260505203143 50 111 3.0 7.0 0.05 0.17 0.17 83 1010.4
20260505202122 49 108 2.0 5.0 0.07 0.17 0.17 83 1010.5
20260505201122 48 127 1.0 3.0 0.09 0.17 0.17 83 1010.7
20260505200122 47 199 0.0 1.0 0.09 0.17 0.17 82 1010.6
20260505195122 47 202 1.0 4.0 0.10 0.17 0.17 81 1010.7
20260505194122 47 264 1.0 2.0 0.07 0.15 0.15 80 1010.8
20260505193122 47 274 3.0 7.0 0.05 0.11 0.11 79 1011.1
20260505192122 48 278 2.0 3.0 0.01 0.09 0.09 77 1011.1
20260505191122 48 0 0.0 0.0 0.00 0.07 0.07 77 1010.9
20260505190122 48 125 0.0 2.0 0.01 0.07 0.07 77 1010.7
20260505185122 48 123 0.0 2.0 0.00 0.07 0.07 78 1010.6
20260505184122 49 123 2.0 7.0 0.00 0.07 0.07 78 1010.4
20260505183143 49 137 3.0 9.0 0.00 0.07 0.07 79 1010.3
20260505182122 49 137 2.0 8.0 0.01 0.07 0.07 79 1010.2
20260505181144 49 162 3.0 8.0 0.01 0.07 0.07 78 1010.2
20260505180122 49 171 3.0 6.0 0.01 0.05 0.05 79 1010.4
20260505175122 49 186 3.0 8.0 0.01 0.05 0.05 78 1010.3
20260505174122 49 160 1.0 8.0 0.01 0.05 0.05 78 1010.3
20260505173122 48 358 1.0 4.0 0.01 0.05 0.05 78 1010.2
20260505172122 48 9 3.0 7.0 0.00 0.05 0.05 77 1010.2
20260505171122 48 14 4.0 10.0 0.00 0.05 0.05 76 1010.2
20260505170144 49 355 4.0 9.0 0.01 0.03 0.03 76 1010.1
20260505165122 49 328 1.0 8.0 0.02 0.03 0.03 74 1009.9
20260505164122 49 278 1.0 4.0 0.03 0.03 0.03 76 1009.8
20260505163122 49 276 1.0 6.0 0.03 0.03 0.03 76 1009.7
20260505162122 49 251 2.0 4.0 0.03 0.03 0.03 77 1009.7
20260505161122 50 288 1.0 3.0 0.02 0.02 0.02 78 1009.8
20260505160122 50 345 0.0 3.0 0.01 0.01 0.01 77 1009.6
20260505153122 50 0 0.0 0.0 0.00 0.00 0.00 74 1009.1
20260505152122 50 0 0.0 0.0 0.00 0.00 0.00 74 1009.0
20260505151143 50 0 0.0 0.0 0.00 0.00 0.00 73 1009.0
20260505150122 49 0 0.0 0.0 0.00 0.00 0.00 73 1009.0
20260505140122 48 0 0.0 0.0 0.00 0.00 0.00 73 1008.8
20260505130122 48 240 0.0 1.0 0.00 0.00 0.00 72 1008.3
20260505124122 48 0 0.0 0.0 0.00 0.00 0.00 70 1008.2
20260505123122 48 0 0.0 0.0 0.00 0.00 0.00 70 1008.2
20260505122122 48 240 1.0 3.0 0.00 0.00 0.00 70 1008.2
20260505121143 49 239 0.0 3.0 0.00 0.00 0.00 69 1008.2
20260505120122 49 0 0.0 0.0 0.00 0.00 0.00 68 1008.1
20260505115122 49 0 0.0 0.0 0.00 0.00 0.00 67 1008.0
20260505114122 49 130 1.0 2.0 0.00 0.00 0.00 67 1007.9
20260505113122 49 130 1.0 2.0 0.00 0.00 0.00 67 1007.8
20260505112143 49 130 1.0 3.0 0.00 0.00 0.00 66 1007.8
20260505111122 49 130 1.0 3.0 0.00 0.00 0.00 66 1007.8
20260505110122 50 0 0.0 0.0 0.00 0.00 0.00 64 1007.9
20260505102122 50 152 0.0 2.0 0.00 0.00 0.00 62 1007.8
20260505101122 50 151 0.0 2.0 0.00 0.00 0.00 62 1007.9
20260505100122 51 151 0.0 2.0 0.00 0.00 0.00 62 1007.9
20260505095122 51 157 0.0 2.0 0.00 0.00 0.00 61 1007.9
20260505094122 51 156 1.0 4.0 0.00 0.00 0.00 60 1007.9
20260505093122 52 126 2.0 3.0 0.00 0.00 0.00 59 1007.8
20260505092122 52 126 0.0 3.0 0.00 0.00 0.00 58 1007.9
20260505091122 53 122 1.0 3.0 0.00 0.00 0.00 57 1007.8
20260505090122 53 157 1.0 3.0 0.00 0.00 0.00 57 1007.8
20260505085122 54 37 2.0 6.0 0.00 0.00 0.00 56 1007.9
20260505084122 54 5 3.0 6.0 0.00 0.00 0.00 56 1008.0